Theta_e
305 306 306 307 307 307 306 304 302 302 302 302 302 302 303 303 303 298 293 295 292 291 291 292 293 288 287 288 286 287 287 287 285 283 285 286 284 287 286 288 286 285 282 282 284 280 275 295 292 288 292 295 297 296
305 306 306 306 307 307 305 303 302 302 301 302 302 302 303 303 303 303 292 296 297 289 289 295 295 296 294 293 289 288 289 290 290 286 288 288 282 284 286 281 294 283 288 287 287 282 290 295 296 299 299 297 297 298
306 306 306 306 307 306 304 303 302 301 301 301 302 302 303 302 303 303 294 294 292 288 288 287 289 294 296 296 297 286 288 293 292 294 289 288 285 285 281 283 287 291 293 287 287 292 294 296 300 299 300 299 300 298
305 306 305 306 306 306 303 302 302 301 301 301 301 302 302 303 302 302 294 294 294 289 284 285 295 293 297 296 297 297 296 295 295 294 292 290 286 289 286 287 286 289 291 289 290 294 296 298 299 299 299 298 298 299
305 305 305 306 306 305 303 302 301 301 301 301 302 302 302 302 302 300 297 295 296 289 284 285 292 294 296 294 295 296 296 296 294 292 290 288 290 289 291 288 286 291 290 288 286 295 296 297 300 299 298 297 297 297
304 305 305 306 306 304 302 301 301 301 301 301 302 302 302 302 302 294 288 298 298 297 289 283 289 292 295 296 297 296 296 296 296 294 292 293 295 291 287 285 291 292 295 297 295 300 299 299 299 297 295 295 297 297
304 304 305 306 306 304 302 301 300 301 301 301 301 301 302 302 296 291 289 295 300 297 291 285 282 291 296 298 297 296 297 297 296 294 292 292 292 293 289 285 291 293 299 301 303 301 297 297 294 296 296 297 298 298
304 305 305 306 305 302 300 300 300 300 301 301 301 302 302 302 300 294 297 302 301 295 293 282 282 286 294 294 294 302 296 296 295 294 294 291 293 292 286 291 294 299 301 301 302 300 297 297 296 296 298 297 296 295
304 305 305 305 303 301 299 299 300 300 300 302 302 303 298 295 295 297 307 305 302 296 288 288 284 278 292 290 291 294 297 290 295 290 291 292 290 286 291 293 296 300 300 300 299 298 297 296 296 297 296 296 293 293
304 305 305 304 302 300 299 299 299 300 301 302 298 294 294 297 305 302 297 293 293 294 293 286 289 286 290 289 287 288 293 289 287 290 295 289 290 296 298 299 299 299 301 301 294 294 295 295 295 296 297 296 294 292
304 305 305 303 301 299 299 299 299 299 298 289 285 285 290 298 292 289 287 288 290 287 290 290 290 288 294 290 289 289 286 291 287 289 290 290 286 291 297 298 300 302 300 300 298 297 297 296 294 295 296 295 293 291
305 305 304 302 300 299 298 298 298 294 290 290 289 292 291 290 289 286 284 289 289 287 290 288 289 290 290 296 292 290 286 290 285 295 291 286 290 292 296 297 299 301 297 298 298 297 296 296 295 295 295 294 292 292
305 304 303 301 299 298 298 298 298 298 296 293 290 288 287 286 279 284 282 283 282 288 289 288 285 289 289 291 288 289 287 286 293 286 285 287 290 292 294 296 303 300 297 297 297 297 296 295 296 295 294 295 293 292
305 303 301 300 299 298 298 298 298 295 291 289 289 277 283 285 287 286 282 282 286 287 286 286 283 284 287 285 288 285 289 290 283 279 282 287 290 294 299 302 301 302 297 297 297 296 295 294 293 295 294 294 293 292
304 302 299 298 298 298 298 298 296 293 291 288 287 276 283 286 286 285 285 285 286 286 284 283 283 285 284 285 288 287 284 281 282 281 286 291 293 295 297 300 301 303 300 296 296 295 295 294 293 293 294 294 294 294
301 299 296 297 297 298 298 296 295 293 292 289 287 283 284 284 283 284 284 284 286 286 285 284 283 285 285 286 284 283 281 278 283 287 290 292 292 294 296 298 300 304 303 297 296 296 296 294 293 293 294 294 294 294
298 292 297 297 299 298 296 294 294 291 288 288 284 287 284 284 283 283 286 287 289 286 282 284 281 282 287 283 282 282 281 284 287 288 291 291 291 292 294 296 298 304 304 300 297 296 295 295 295 294 292 293 294 294
293 296 298 298 297 294 295 294 292 289 285 285 283 284 285 285 285 287 288 290 288 287 285 283 286 280 279 277 278 283 286 288 290 290 289 290 291 292 291 293 300 301 303 302 299 297 296 295 293 291 292 294 294 294
296 298 299 299 295 294 292 292 292 286 286 287 287 286 285 288 289 289 289 290 290 290 287 284 281 276 281 285 284 286 287 288 288 287 288 289 289 289 289 293 296 297 299 303 303 295 295 295 294 294 293 294 292 293
298 298 298 298 296 292 291 289 293 287 285 287 286 285 285 287 288 287 286 286 286 285 283 283 283 283 284 286 288 288 289 289 287 285 285 286 288 288 288 290 292 294 301 303 302 294 293 293 294 295 295 295 293 292
294 295 297 294 291 291 291 290 287 288 287 285 286 285 286 288 286 285 284 286 283 281 280 284 285 287 288 290 291 289 288 288 286 285 285 284 287 288 287 289 292 295 299 303 300 294 292 292 293 293 293 293 294 293
293 297 292 293 291 293 289 290 287 288 285 285 285 286 286 285 285 284 286 283 283 280 284 285 287 287 287 287 288 288 288 288 287 287 287 288 286 286 286 288 292 295 296 299 302 300 294 293 293 293 292 292 293 293
296 295 292 293 288 286 284 291 286 287 284 285 287 285 285 285 286 288 281 283 285 286 284 284 288 289 288 287 289 289 289 287 286 286 288 288 288 288 289 291 292 293 295 294 297 304 293 291 291 293 292 291 292 291
296 291 288 287 286 282 289 285 288 287 286 284 284 283 285 285 288 283 279 278 281 283 283 287 287 286 286 285 285 287 288 287 286 286 288 288 286 287 290 289 291 293 294 292 296 301 296 295 292 292 292 292 291 290
283 283 283 280 287 285 285 285 286 285 283 284 284 284 285 287 282 280 279 279 280 281 284 287 283 283 284 283 287 287 286 284 284 284 288 289 289 288 287 288 289 291 292 289 290 292 297 296 294 292 292 292 291 290
277 283 281 284 285 284 284 283 284 284 284 284 285 287 287 282 279 280 280 283 279 280 278 282 281 282 285 287 286 284 283 284 283 282 286 289 288 287 285 284 285 287 291 290 290 292 294 298 296 294 292 291 288 290
278 280 285 289 288 288 285 286 287 283 283 283 283 284 283 277 280 282 283 284 283 286 284 285 284 283 287 287 288 288 284 283 282 283 286 288 288 290 287 285 285 287 290 290 292 292 292 293 299 298 294 292 292 291
283 285 281 284 286 287 284 285 285 283 284 286 287 283 278 278 280 285 286 285 285 285 284 285 286 286 285 285 285 284 283 282 282 283 284 286 286 286 286 288 289 286 289 291 290 291 292 293 295 300 294 293 292 292
283 286 286 283 285 285 285 285 285 286 288 287 284 282 280 285 285 281 283 285 284 283 283 282 283 285 285 284 284 283 279 278 279 277 277 278 280 282 284 286 287 288 289 288 287 287 290 291 292 295 300 295 294 292
283 288 284 286 284 283 286 287 286 287 287 286 285 285 284 282 285 286 284 283 282 281 281 282 282 282 281 278 277 280 280 277 274 273 275 277 279 282 282 283 284 286 287 287 287 288 287 290 292 294 294 295 293 289
287 287 286 287 285 286 288 290 289 288 286 284 285 281 279 280 283 283 282 281 281 282 281 281 281 282 281 281 278 276 277 280 279 279 279 279 281 281 281 281 284 286 285 285 285 286 287 288 291 294 301 294 291 289
286 286 286 284 284 288 290 287 285 284 282 281 279 280 280 279 277 279 284 283 282 281 282 282 282 281 283 283 282 281 279 277 277 278 281 281 280 280 280 280 282 285 284 283 283 284 285 287 290 294 299 294 291 290
285 287 287 286 284 286 287 287 286 284 284 281 281 281 282 278 277 281 285 286 284 283 283 282 283 283 284 283 282 282 280 280 280 280 279 279 278 279 279 279 280 282 281 281 281 282 282 289 294 295 294 292 291 290
Wind_Speed
11 11 11 10 8 8 7 9 11 11 12 14 14 14 14 14 12 4 5 2 1 4 12 12 13 10 4 4 3 5 7 5 4 2 2 3 3 3 5 3 3 6 5 4 3 5 8 6 3 6 6 5 7 9
12 11 10 11 9 7 7 9 10 11 11 14 14 14 14 14 13 8 3 3 2 4 9 13 16 17 16 22 9 4 5 2 3 2 3 3 4 4 2 4 2 3 4 2 6 7 6 7 8 8 8 12 17 9
13 12 10 11 10 7 7 9 11 11 12 13 15 14 15 15 15 9 3 2 3 4 7 3 5 5 6 11 12 5 4 7 4 4 1 3 5 2 3 4 4 4 4 4 6 4 8 14 11 8 8 7 5 7
14 12 11 11 10 8 8 9 11 12 12 14 16 15 15 16 14 14 3 3 2 4 4 9 6 14 9 12 7 18 4 2 4 3 2 3 2 3 3 5 10 7 7 6 6 9 14 10 8 13 7 5 7 8
15 13 12 11 10 9 8 10 12 14 13 14 17 16 15 15 15 10 7 4 6 3 4 8 17 7 8 5 8 15 9 4 3 2 3 3 3 3 2 3 4 4 5 3 6 9 10 13 13 6 7 10 12 12
15 13 12 11 10 9 9 10 12 15 15 16 18 16 15 15 12 3 3 2 4 5 3 6 6 9 13 6 4 13 11 3 3 3 3 3 4 1 4 4 7 5 7 12 14 7 14 12 3 4 7 12 15 15
15 13 12 12 10 9 9 10 13 15 17 18 20 17 15 12 0 3 3 3 5 4 3 5 6 7 8 7 5 3 2 2 2 2 3 3 3 3 3 7 11 8 11 12 12 13 12 2 3 6 8 11 15 15
15 14 12 11 10 9 9 10 13 17 18 21 22 19 17 12 7 4 4 9 5 2 2 2 6 6 4 2 2 2 1 1 2 3 1 3 2 4 6 9 10 11 11 12 15 1 1 2 4 5 8 12 14 13
16 14 13 11 10 9 8 9 13 17 21 22 24 16 1 2 2 2 4 5 2 2 1 1 3 5 6 4 2 1 2 3 2 3 3 2 2 5 8 9 11 12 7 12 4 1 4 3 5 6 8 12 12 13
15 14 13 11 10 8 7 8 12 17 22 23 2 1 2 2 4 5 2 1 1 1 0 2 3 4 4 3 4 3 1 2 3 5 3 4 3 11 10 15 13 15 15 9 4 6 5 6 7 10 9 8 11 12
15 15 14 12 11 8 6 7 10 16 8 5 4 2 4 11 3 1 1 2 2 2 2 4 5 5 3 3 3 2 3 2 3 2 3 3 3 13 20 20 18 10 2 3 4 3 2 5 7 9 9 10 11 12
16 15 14 13 11 8 5 4 7 4 1 2 3 4 3 2 1 1 3 3 3 2 4 4 6 5 4 3 2 4 3 3 4 3 4 5 5 16 18 20 19 11 7 6 6 6 6 8 8 8 9 12 11 10
16 15 15 13 11 8 5 4 5 6 6 0 1 2 2 2 2 2 3 3 4 2 3 3 5 3 2 1 2 2 3 3 7 4 5 3 13 18 22 22 12 6 7 7 8 6 6 8 9 10 10 10 11 11
16 16 16 13 10 7 5 4 4 2 0 2 3 3 4 2 3 1 1 2 4 1 4 3 4 2 1 2 0 2 3 3 4 5 3 8 16 19 17 18 14 13 5 7 6 6 7 8 9 11 11 11 10 10
17 17 14 11 10 9 7 4 2 0 1 3 1 2 4 3 1 1 1 2 4 2 4 5 4 2 0 2 1 1 3 6 4 2 4 11 19 21 20 16 16 14 9 3 4 6 7 7 8 10 11 10 11 11
18 12 7 10 13 11 6 3 3 2 3 3 3 1 2 4 4 4 2 3 3 4 4 2 3 5 5 4 5 7 3 4 6 7 10 14 19 18 18 18 17 14 12 3 5 5 6 6 8 9 10 10 11 13
16 4 13 15 10 10 6 2 3 4 3 3 4 3 3 2 4 1 2 2 3 3 3 2 5 5 3 4 3 4 3 6 9 9 8 14 16 18 18 18 18 14 12 2 5 5 4 4 6 7 9 9 10 12
2 6 16 16 10 5 3 3 2 4 4 4 2 4 2 2 4 2 2 3 3 2 2 2 3 6 4 3 3 4 7 6 7 6 9 12 14 16 17 18 16 16 14 12 3 5 5 4 5 3 5 6 8 9
9 10 14 13 6 3 4 4 4 3 6 3 3 2 2 4 2 3 3 4 2 2 4 4 5 2 2 2 4 7 8 8 7 8 9 10 12 15 17 17 16 16 14 11 7 2 3 5 5 4 4 3 3 3
17 13 10 9 6 2 3 3 3 2 3 4 1 0 4 4 4 3 4 4 4 4 5 3 3 2 2 4 5 6 6 7 7 10 12 10 10 13 13 13 11 14 10 10 6 1 4 4 3 3 3 3 4 3
5 6 8 5 3 2 3 1 3 4 3 1 2 3 3 3 4 3 2 2 5 3 3 2 1 2 4 5 4 5 6 7 8 8 10 11 11 10 10 10 10 9 9 5 5 1 1 4 3 4 4 4 4 4
3 12 3 3 2 4 3 4 3 2 2 3 1 3 4 4 3 2 3 4 3 1 2 1 1 2 3 3 5 6 7 9 9 7 9 10 8 9 9 9 10 9 9 8 6 3 1 2 4 5 5 4 6 5
11 4 2 4 4 3 5 0 2 3 2 3 2 2 2 3 4 4 4 3 3 2 3 2 2 4 3 2 4 6 7 9 7 8 8 7 8 8 8 9 8 8 9 10 9 4 3 4 5 5 5 5 6 6
2 3 4 5 4 4 3 3 3 2 1 2 2 3 4 4 3 4 3 2 3 2 2 1 2 3 4 4 3 5 6 7 8 8 7 6 7 8 7 9 8 7 7 9 8 7 2 2 4 5 6 6 6 6
4 4 4 5 4 4 6 5 5 3 4 4 3 2 3 4 3 3 3 3 2 2 2 2 3 3 1 2 3 4 5 5 7 8 7 6 6 6 7 7 8 7 8 11 12 10 8 2 4 5 6 7 8 8
5 5 7 6 4 4 5 6 7 5 4 5 5 3 3 4 4 4 3 4 3 3 2 2 2 2 2 2 2 3 4 4 4 5 5 7 7 7 9 10 9 8 7 8 9 11 11 9 5 9 7 9 11 11
4 5 4 3 3 3 3 2 3 4 4 4 4 4 4 4 3 3 2 2 4 3 4 3 3 2 2 1 1 2 3 4 4 5 6 4 5 5 6 8 11 8 10 10 9 10 10 10 9 2 9 10 12 12
4 3 6 5 4 4 3 4 5 5 5 3 5 3 5 4 3 3 3 4 4 3 3 2 1 3 3 2 2 1 3 4 5 5 6 4 4 3 9 8 8 11 8 9 9 8 9 10 9 6 6 12 11 11
4 3 4 5 5 3 4 4 4 3 4 4 4 4 3 2 2 3 3 3 4 4 4 4 4 4 3 3 3 2 1 3 9 15 15 11 11 8 11 10 9 9 9 9 12 9 11 10 10 10 6 9 12 12
5 5 4 5 6 4 3 3 2 3 4 5 6 8 7 5 4 4 5 5 5 4 3 3 3 4 3 2 2 4 2 2 1 2 5 8 8 10 10 11 11 11 10 10 10 11 10 8 8 3 6 7 11 12
4 5 4 3 4 4 4 8 8 5 4 7 9 11 7 5 3 5 5 3 5 5 5 5 5 5 4 4 3 2 2 4 5 5 4 4 6 9 10 10 10 10 10 11 10 10 10 9 7 8 8 13 17 17
5 5 6 4 3 3 10 5 4 5 4 5 4 3 4 4 4 3 3 4 5 5 5 5 4 4 4 4 4 3 5 1 3 4 7 5 6 9 10 9 10 10 11 12 12 11 13 12 9 10 7 16 20 21
5 2 4 3 4 5 3 5 4 4 4 4 4 4 3 4 4 2 2 3 3 2 2 2 2 3 5 5 6 4 4 4 7 9 8 10 7 8 9 9 10 11 13 13 14 15 19 15 3 9 12 16 16 16
Wind_Direction
244 248 260 267 274 286 303 311 314 322 324 325 327 330 333 333 334 352 271 273 154 267 287 256 267 259 262 202 229 304 348 334 349 349 237 311 301 336 318 294 225 192 181 209 219 218 273 151 148 195 215 276 269 267
238 243 251 260 263 272 287 300 305 312 319 318 320 324 324 324 318 328 270 305 297 211 255 291 261 254 236 246 252 212 239 325 277 2 355 342 320 310 324 282 310 285 178 229 215 227 235 207 215 229 254 268 280 261
237 241 245 255 259 262 277 292 298 306 313 315 314 317 318 317 316 311 244 253 327 281 291 318 270 257 237 228 205 183 245 199 225 178 229 277 265 17 284 266 305 307 319 248 346 284 333 311 269 244 243 234 261 257
235 236 239 247 254 251 271 287 295 301 311 314 309 312 313 314 314 311 262 196 213 266 279 278 303 297 297 280 219 200 160 116 141 134 220 237 265 218 267 279 287 264 312 269 259 287 321 306 303 285 273 274 271 277
230 231 235 240 246 251 267 284 292 297 306 312 308 310 313 316 315 306 276 221 194 186 289 292 305 270 306 274 235 192 199 154 154 164 204 226 255 281 272 273 259 212 231 257 276 285 275 271 294 359 341 305 289 273
225 226 230 235 238 247 262 279 291 298 306 311 307 309 311 311 320 341 329 54 176 186 279 312 295 299 309 312 195 186 196 161 155 185 245 229 254 153 264 258 241 262 320 312 291 284 273 289 112 355 318 315 310 303
220 222 225 231 236 242 261 281 292 299 304 308 303 304 299 296 222 216 226 252 298 1 261 302 305 282 303 16 7 50 107 160 138 204 220 226 241 193 256 258 276 294 289 306 273 264 293 74 304 318 300 306 298 300
214 217 218 223 226 238 260 284 297 302 308 306 300 300 286 272 275 267 253 261 193 184 84 334 282 318 311 336 148 172 153 118 190 243 219 233 236 199 250 249 278 282 286 304 285 358 134 191 245 285 327 315 317 325
210 210 212 212 220 235 261 286 302 309 310 306 305 302 89 108 172 233 6 105 48 105 9 298 285 286 340 307 320 44 136 222 192 224 226 185 217 238 252 280 289 281 311 274 317 286 190 261 313 316 329 327 341 329
205 205 203 202 212 227 259 294 311 316 314 308 6 117 115 213 78 88 22 119 35 42 184 253 279 273 326 299 291 359 223 229 252 224 160 212 237 295 322 321 288 274 278 275 282 338 335 336 336 322 327 349 336 332
202 201 196 199 206 221 254 299 323 328 345 35 14 349 268 301 61 129 243 212 150 214 199 237 235 263 253 276 273 227 275 243 262 271 236 224 47 334 337 343 338 302 233 92 92 82 330 331 348 350 352 354 352 344
198 195 190 193 202 214 239 294 332 7 72 213 250 284 292 328 149 265 223 167 211 225 206 227 236 209 271 239 330 299 279 305 263 350 243 34 330 332 325 326 309 296 56 94 73 66 33 26 14 14 360 348 5 357
191 187 185 190 198 209 225 278 307 307 313 41 191 253 103 272 44 239 339 354 333 207 267 282 305 222 273 23 284 325 294 283 318 16 32 333 323 333 335 323 327 328 72 93 82 63 31 24 16 27 12 7 6 8
182 183 184 185 196 209 228 249 299 327 275 206 195 324 166 186 259 354 161 233 254 232 281 265 268 228 251 46 147 303 320 309 50 17 350 322 325 327 327 1 355 349 16 91 89 68 46 26 14 24 22 4 13 19
174 178 172 185 199 221 223 228 225 254 246 254 213 219 212 240 109 175 197 39 304 278 313 325 305 144 230 9 290 333 325 34 42 326 302 329 335 334 339 351 348 348 344 74 95 67 50 39 34 30 21 12 19 23
155 147 191 182 207 212 186 207 196 179 247 245 241 298 296 58 340 358 0 339 312 323 326 28 337 28 13 345 18 19 43 25 346 328 330 331 328 335 343 340 335 339 335 322 98 87 68 60 51 44 31 23 24 28
150 189 181 190 178 161 173 174 171 216 253 241 251 241 196 192 206 257 157 289 300 52 333 19 35 18 329 27 36 39 2 327 317 320 326 323 326 335 344 336 338 342 333 331 117 108 95 84 79 65 48 29 31 32
145 165 161 176 153 156 165 198 246 208 235 242 241 255 231 140 113 32 354 343 38 356 34 88 67 29 38 33 5 329 310 304 302 327 318 324 336 337 336 333 343 345 347 10 126 141 128 109 87 82 76 41 41 36
144 145 165 162 172 172 174 199 200 243 220 219 232 250 145 112 79 110 64 359 18 47 72 52 61 56 15 28 323 318 315 319 328 328 319 327 335 336 328 327 334 337 336 347 333 226 189 164 150 155 142 112 70 21
136 152 160 172 188 186 220 221 153 204 253 234 168 284 140 148 137 74 53 34 41 62 48 54 58 43 355 305 306 304 318 335 336 325 325 330 334 332 328 325 322 329 315 341 338 41 83 64 103 152 149 134 148 190
113 150 150 151 178 218 273 255 190 207 224 175 233 133 141 98 106 117 77 28 52 45 76 84 79 312 322 321 340 9 353 353 338 326 323 318 324 320 321 317 317 311 330 339 341 261 127 128 127 104 97 94 80 68
143 162 126 207 224 203 234 236 204 252 110 215 359 135 121 128 152 131 119 55 85 215 101 136 276 302 310 4 21 16 356 338 328 310 309 310 319 322 321 317 322 335 331 329 327 338 226 203 118 102 89 80 84 78
141 168 188 166 215 162 247 211 179 204 169 219 142 174 171 128 156 120 83 118 104 126 161 201 303 299 291 27 23 12 357 338 327 328 319 320 316 311 313 324 332 326 330 330 321 329 168 162 121 112 98 86 90 79
138 168 198 187 166 207 215 218 215 216 188 132 166 214 135 128 132 77 109 153 150 145 96 15 333 353 359 10 360 359 356 345 334 336 333 335 329 327 334 331 327 335 350 325 327 352 56 137 141 123 120 111 109 108
120 225 146 205 182 207 200 181 180 193 186 167 205 179 149 116 99 94 132 159 132 119 114 29 21 353 29 312 345 1 345 345 336 327 334 331 324 318 343 346 338 344 354 347 352 346 347 335 151 139 126 124 120 113
184 218 180 198 194 204 206 176 186 173 181 185 197 137 74 85 92 134 165 146 155 134 176 192 237 314 354 21 4 347 323 320 319 328 327 345 346 342 342 337 339 339 348 338 325 325 333 332 222 165 149 146 135 128
204 211 198 237 245 219 240 189 122 127 162 203 161 116 111 121 143 128 126 103 122 187 189 210 199 204 112 56 31 27 340 333 321 301 299 310 312 327 334 327 327 321 322 316 315 320 321 324 315 204 164 159 156 148
227 246 210 192 218 208 244 167 143 163 196 202 113 109 136 145 123 146 155 172 176 179 180 208 240 158 127 130 140 42 335 329 328 325 330 313 325 322 343 331 327 317 314 322 316 315 307 300 297 304 191 171 157 154
232 228 221 227 214 236 201 180 177 190 182 120 96 92 104 69 112 113 153 147 123 97 88 69 7 66 63 57 48 82 356 6 7 4 1 351 345 341 345 331 328 328 327 322 310 290 291 290 292 291 292 194 165 151
238 201 221 198 153 194 226 144 89 50 48 95 100 100 82 46 41 58 74 72 76 76 59 87 69 59 37 75 330 31 353 27 53 95 342 337 329 319 327 328 327 324 328 324 316 308 301 286 301 262 227 190 159 148
227 178 212 197 163 162 142 107 92 85 79 89 108 116 113 130 57 30 47 68 79 61 52 37 32 21 25 20 2 52 27 339 339 351 339 301 320 330 331 328 322 327 329 326 321 312 301 289 265 260 202 170 162 156
190 218 160 161 182 135 121 106 78 100 109 104 110 101 92 98 96 27 355 68 69 63 60 53 33 344 345 15 9 58 147 260 342 350 3 342 340 342 340 337 333 341 342 340 336 326 304 263 233 228 208 166 163 158
205 184 141 159 130 112 53 96 112 135 129 117 113 141 76 94 109 129 20 52 112 98 46 7 355 6 36 43 22 40 43 47 32 23 14 7 347 0 1 353 348 353 359 1 1 1 10 27 134 133 123 139 136 130